EW8956 Weather Reports


time (UTC)temp
C
wind
direction
speed
KPH
gust
KPH
rain 1hr
cm
rain 24hr
cm
rain mn
cm
humidity
%
barometer
mb
20260831080117 20 0 0.0 0.0 0.00 0.00 0.00 92 1021.3
20260831074555 20 0 0.0 0.0 0.00 0.00 0.00 92 1021.4
20260831073053 20 0 0.0 0.0 0.00 0.00 0.00 92 1021.5
20260831071553 20 0 0.0 0.0 0.00 0.00 0.00 92 1021.4
20260831070058 20 0 0.0 0.0 0.00 0.00 0.00 92 1021.4
20260831064557 20 0 0.0 0.0 0.00 0.00 0.00 92 1021.5
20260831063107 20 0 0.0 0.0 0.00 0.00 0.00 91 1021.5
20260831061551 20 0 0.0 0.0 0.00 0.00 0.00 91 1021.5
20260831060058 20 0 0.0 0.0 0.00 0.00 0.00 91 1021.6
20260831054556 21 0 0.0 0.0 0.00 0.00 0.00 91 1021.7
20260831053100 21 0 0.0 0.0 0.00 0.00 0.00 91 1021.7
20260831051551 21 0 0.0 0.0 0.00 0.00 0.00 90 1021.6
20260831050108 21 0 0.0 0.0 0.00 0.00 0.00 90 1021.8
20260831044554 21 0 0.0 0.0 0.00 0.00 0.00 90 1021.8
20260831043054 21 0 0.0 0.0 0.00 0.00 0.00 89 1021.7
20260831041554 21 0 0.0 0.0 0.00 0.00 0.00 89 1021.6
20260831040056 21 0 0.0 0.0 0.00 0.00 0.00 88 1021.7
20260831034602 22 0 0.0 0.0 0.00 0.00 0.00 88 1021.9
20260831033100 22 0 0.0 0.0 0.00 0.00 0.00 87 1021.9
20260831031549 22 0 0.0 0.0 0.00 0.00 0.00 86 1022.0
20260831030057 22 0 0.0 0.0 0.00 0.00 0.00 86 1022.2
20260831024559 23 0 0.0 0.0 0.00 0.00 0.00 85 1022.3
20260831023054 23 0 0.0 0.0 0.00 0.00 0.00 84 1022.3
20260831021550 23 0 0.0 0.0 0.00 0.00 0.00 82 1022.3
20260831020056 23 0 0.0 0.0 0.00 0.00 0.00 80 1021.9
20260831014553 24 0 0.0 0.0 0.00 0.00 0.00 79 1021.8
20260831013050 24 0 0.0 0.0 0.00 0.00 0.00 78 1021.8
20260831011553 25 0 0.0 0.0 0.00 0.00 0.00 76 1021.7
20260831010106 25 0 0.0 6.4 0.00 0.00 0.00 76 1021.6
20260831004553 25 0 0.0 3.2 0.00 0.00 0.00 75 1021.4
20260831003052 25 0 0.0 1.6 0.00 0.00 0.00 74 1021.3
20260831001550 26 0 0.0 0.0 0.00 0.00 0.00 73 1021.3
20260831000055 26 0 0.0 1.6 0.00 0.00 0.00 71 1021.5
20260830234554 26 0 0.0 1.6 0.00 0.00 0.00 69 1021.4
20260830233101 27 0 1.6 8.0 0.00 0.00 0.00 68 1021.5
20260830231554 27 0 0.0 6.4 0.00 0.00 0.00 67 1021.5
20260830230104 27 98 0.0 6.4 0.00 0.00 0.00 66 1021.3
20260830224559 27 0 1.6 9.7 0.00 0.00 0.00 65 1021.3
20260830223056 28 0 1.6 11.3 0.00 0.00 0.00 64 1021.1
20260830221553 28 129 1.6 11.3 0.00 0.00 0.00 64 1021.1
20260830220053 28 0 0.0 6.4 0.00 0.00 0.00 63 1021.1
20260830214552 28 198 0.0 6.4 0.00 0.00 0.00 63 1021.1
20260830213054 28 149 0.0 4.8 0.00 0.00 0.00 63 1021.1
20260830211555 28 0 0.0 3.2 0.00 0.00 0.00 62 1021.0
20260830210101 29 219 0.0 8.0 0.00 0.00 0.00 62 1021.3
20260830204557 28 86 1.6 12.9 0.00 0.00 0.00 62 1021.3
20260830203054 28 119 0.0 11.3 0.00 0.00 0.00 62 1021.4
20260830201554 30 115 1.6 14.5 0.00 0.00 0.00 58 1021.5
20260830200053 30 355 1.6 6.4 0.00 0.00 0.00 58 1021.7
20260830194607 29 0 0.0 4.8 0.00 0.00 0.00 61 1021.8
20260830193055 29 0 0.0 3.2 0.00 0.00 0.00 61 1022.0
20260830191556 28 0 0.0 1.6 0.00 0.00 0.00 63 1022.2
20260830190051 27 0 0.0 4.8 0.00 0.00 0.00 63 1022.4
20260830184548 28 0 0.0 3.2 0.00 0.00 0.00 63 1022.6
20260830183054 27 0 1.6 9.7 0.00 0.00 0.00 64 1022.9
20260830181555 28 117 0.0 6.4 0.00 0.00 0.00 63 1023.4
20260830180055 28 0 1.6 9.7 0.00 0.00 0.00 62 1023.5
20260830174616 28 0 0.0 6.4 0.00 0.00 0.00 62 1023.7
20260830173059 27 187 3.2 11.3 0.00 0.00 0.00 65 1023.9
20260830171600 28 146 0.0 4.8 0.00 0.00 0.00 64 1023.9
20260830170053 27 0 0.0 3.2 0.00 0.00 0.00 66 1024.1
20260830164554 25 0 0.0 4.8 0.00 0.00 0.00 74 1024.3
20260830163101 25 0 0.0 3.2 0.00 0.00 0.00 76 1024.6
20260830161553 25 0 0.0 1.6 0.00 0.00 0.00 76 1024.7
20260830160112 26 0 0.0 0.0 0.00 0.00 0.00 75 1024.8
20260830154547 26 0 0.0 4.8 0.00 0.00 0.00 74 1024.7
20260830153055 26 123 0.0 1.6 0.00 0.00 0.00 75 1024.9
20260830151549 23 0 0.0 4.8 0.00 0.00 0.00 81 1024.8
20260830150059 23 0 1.6 6.4 0.00 0.00 0.00 83 1024.9
20260830144603 23 173 0.0 9.7 0.00 0.00 0.00 83 1024.8
20260830143105 23 122 0.0 11.3 0.00 0.00 0.00 83 1024.9
20260830141559 22 98 0.0 3.2 0.00 0.00 0.00 88 1024.7
20260830140058 21 0 0.0 0.0 0.00 0.00 0.00 90 1024.9
20260830134601 21 0 0.0 3.2 0.00 0.00 0.00 91 1025.0
20260830133057 21 0 0.0 3.2 0.00 0.00 0.00 92 1025.0
20260830131600 21 98 0.0 1.6 0.00 0.00 0.00 93 1025.0
20260830130106 21 0 0.0 1.6 0.00 0.00 0.00 93 1024.9
20260830124553 21 98 0.0 3.2 0.00 0.00 0.00 93 1024.9
20260830123054 21 0 0.0 3.2 0.00 0.00 0.00 94 1024.8
20260830121603 21 0 0.0 3.2 0.00 0.00 0.00 94 1024.7
20260830120054 21 98 1.6 6.4 0.00 0.00 0.00 94 1024.7
20260830114555 20 0 0.0 3.2 0.00 0.00 0.00 94 1024.5
20260830113058 20 0 1.6 3.2 0.00 0.00 0.00 94 1024.5
20260830111555 20 114 0.0 4.8 0.00 0.00 0.00 94 1024.4
20260830110052 20 0 0.0 3.2 0.00 0.00 0.00 94 1024.2
20260830104548 20 113 0.0 6.4 0.00 0.00 0.00 94 1024.1
20260830103057 20 0 0.0 0.0 0.00 0.00 0.00 94 1023.9
20260830101556 20 0 0.0 1.6 0.00 0.00 0.00 93 1023.5
20260830100054 21 0 0.0 0.0 0.00 0.00 0.00 94 1023.4
20260830094548 20 0 0.0 1.6 0.00 0.00 0.00 93 1023.3
20260830093054 21 0 0.0 0.0 0.00 0.00 0.00 93 1023.4
20260830091554 21 0 0.0 0.0 0.00 0.00 0.00 93 1023.3
20260830090103 21 0 0.0 0.0 0.00 0.00 0.00 93 1023.1
20260830084553 21 0 0.0 0.0 0.00 0.00 0.00 93 1023.3
20260830083054 21 0 0.0 0.0 0.00 0.00 0.00 93 1023.3
20260830081544 21 0 0.0 0.0 0.00 0.00 0.00 93 1023.4